Time,TemperatureF,DewpointF,PressureIn,WindDirection,WindDirectionDegrees,WindSpeedMPH,WindSpeedGustMPH,Humidity,HourlyPrecipIn,Conditions,Clouds,dailyrainin,SoftwareType,DateUTC
2013-10-04 00:53:00,57.0,48.8,30.11,NNW,337,0.0,-999.0,74,-99.99,,,0.00,Acu-Link.com,2013-10-04 04:53:00,
2013-10-04 01:08:00,57.0,48.5,30.11,NNW,337,0.0,-999.0,73,-99.99,,,0.00,Acu-Link.com,2013-10-04 05:08:00,
2013-10-04 01:39:00,57.0,48.5,30.11,NNW,337,0.0,-999.0,73,-99.99,,,0.00,Acu-Link.com,2013-10-04 05:39:00,
2013-10-04 01:54:00,56.5,49.4,30.12,NNW,337,0.0,-999.0,77,-99.99,,,0.00,Acu-Link.com,2013-10-04 05:54:00,
2013-10-04 02:09:00,56.5,49.0,30.12,NNW,337,0.0,-999.0,76,-99.99,,,0.00,Acu-Link.com,2013-10-04 06:09:00,
2013-10-04 02:24:00,56.3,48.8,30.12,NNW,337,0.0,-999.0,76,-99.99,,,0.00,Acu-Link.com,2013-10-04 06:24:00,
2013-10-04 02:39:00,56.1,48.7,30.11,NNW,337,0.0,-999.0,76,-99.99,,,0.00,Acu-Link.com,2013-10-04 06:39:00,
2013-10-04 02:54:00,55.9,48.1,30.12,NNW,337,0.0,-999.0,75,-99.99,,,0.00,Acu-Link.com,2013-10-04 06:54:00,
2013-10-04 03:09:00,55.9,48.5,30.11,NNW,337,0.0,-999.0,76,-99.99,,,0.00,Acu-Link.com,2013-10-04 07:09:00,
2013-10-04 03:25:00,55.9,47.8,30.11,NNW,337,0.0,-999.0,74,-99.99,,,0.00,Acu-Link.com,2013-10-04 07:25:00,
2013-10-04 03:42:00,55.9,47.8,30.11,NNW,337,0.0,-999.0,74,-99.99,,,0.00,Acu-Link.com,2013-10-04 07:42:00,
2013-10-04 03:57:00,56.1,46.8,30.11,NNW,337,2.2,-999.0,71,-99.99,,,0.00,Acu-Link.com,2013-10-04 07:57:00,
2013-10-04 04:12:00,55.9,47.4,30.12,NNW,337,0.0,-999.0,73,-99.99,,,0.00,Acu-Link.com,2013-10-04 08:12:00,
2013-10-04 04:27:00,55.8,47.2,30.11,NNW,337,0.0,-999.0,73,-99.99,,,0.00,Acu-Link.com,2013-10-04 08:27:00,
2013-10-04 04:42:00,55.6,47.1,30.12,NNW,337,0.0,-999.0,73,-99.99,,,0.00,Acu-Link.com,2013-10-04 08:42:00,
2013-10-04 04:57:00,55.6,46.3,30.11,NNW,337,0.0,-999.0,71,-99.99,,,0.00,Acu-Link.com,2013-10-04 08:57:00,
2013-10-04 05:13:00,55.6,46.3,30.13,NNW,337,0.0,-999.0,71,-99.99,,,0.00,Acu-Link.com,2013-10-04 09:13:00,
2013-10-04 05:28:00,55.6,47.8,30.13,NNW,337,0.0,-999.0,75,-99.99,,,0.00,Acu-Link.com,2013-10-04 09:28:00,
2013-10-04 05:43:00,55.9,46.3,30.14,ENE,67,0.0,-999.0,70,-99.99,,,0.00,Acu-Link.com,2013-10-04 09:43:00,
2013-10-04 05:58:00,55.6,46.0,30.14,ESE,112,1.6,-999.0,70,-99.99,,,0.00,Acu-Link.com,2013-10-04 09:58:00,
2013-10-04 06:13:00,55.4,46.9,30.15,WSW,247,0.0,-999.0,73,-99.99,,,0.00,Acu-Link.com,2013-10-04 10:13:00,
2013-10-04 06:29:00,54.7,47.3,30.15,NNW,337,1.6,-999.0,76,-99.99,,,0.00,Acu-Link.com,2013-10-04 10:29:00,
2013-10-04 06:44:00,54.7,45.8,30.15,NNW,337,1.6,-999.0,72,-99.99,,,0.00,Acu-Link.com,2013-10-04 10:44:00,
2013-10-04 06:59:00,54.9,46.0,30.16,NNW,337,0.0,-999.0,72,-99.99,,,0.00,Acu-Link.com,2013-10-04 10:59:00,
2013-10-04 07:14:00,54.9,46.0,30.16,NNW,337,0.0,-999.0,72,-99.99,,,0.00,Acu-Link.com,2013-10-04 11:14:00,
2013-10-04 07:29:00,54.9,46.4,30.17,NNW,337,0.0,-999.0,73,-99.99,,,0.00,Acu-Link.com,2013-10-04 11:29:00,
2013-10-04 07:45:00,54.9,46.4,30.17,NNW,337,0.0,-999.0,73,-99.99,,,0.00,Acu-Link.com,2013-10-04 11:45:00,
2013-10-04 08:00:00,54.9,46.4,30.17,ENE,67,0.0,-999.0,73,-99.99,,,0.00,Acu-Link.com,2013-10-04 12:00:00,
2013-10-04 08:15:00,54.9,46.4,30.18,NE,45,0.0,-999.0,73,-99.99,,,0.00,Acu-Link.com,2013-10-04 12:15:00,
2013-10-04 08:30:00,54.9,46.4,30.19,ENE,67,2.7,-999.0,73,-99.99,,,0.00,Acu-Link.com,2013-10-04 12:30:00,
2013-10-04 08:45:00,54.9,46.4,30.19,ENE,67,0.0,-999.0,73,-99.99,,,0.00,Acu-Link.com,2013-10-04 12:45:00,
2013-10-04 09:00:00,54.9,46.4,30.19,NE,45,2.2,-999.0,73,-99.99,,,0.00,Acu-Link.com,2013-10-04 13:00:00,
2013-10-04 09:16:00,55.0,46.9,30.20,North,0,2.2,-999.0,74,-99.99,,,0.00,Acu-Link.com,2013-10-04 13:16:00,
2013-10-04 09:31:00,55.0,46.5,30.20,NNE,22,2.7,-999.0,73,-99.99,,,0.00,Acu-Link.com,2013-10-04 13:31:00,
2013-10-04 09:46:00,55.2,46.0,30.20,NE,45,2.7,-999.0,71,-99.99,,,0.00,Acu-Link.com,2013-10-04 13:46:00,
2013-10-04 10:01:00,55.4,46.2,30.19,ENE,67,1.1,-999.0,71,-99.99,,,0.00,Acu-Link.com,2013-10-04 14:01:00,
2013-10-04 10:16:00,55.8,46.1,30.20,North,0,2.7,-999.0,70,-99.99,,,0.00,Acu-Link.com,2013-10-04 14:16:00,
2013-10-04 10:32:00,56.5,45.7,30.19,ENE,67,1.6,-999.0,67,-99.99,,,0.00,Acu-Link.com,2013-10-04 14:32:00,
2013-10-04 10:47:00,56.5,46.0,30.19,ENE,67,0.0,-999.0,68,-99.99,,,0.00,Acu-Link.com,2013-10-04 14:47:00,
2013-10-04 11:02:00,56.8,46.4,30.19,NE,45,2.7,-999.0,68,-99.99,,,0.00,Acu-Link.com,2013-10-04 15:02:00,
2013-10-04 11:17:00,56.7,45.8,30.19,ENE,67,2.2,-999.0,67,-99.99,,,0.00,Acu-Link.com,2013-10-04 15:17:00,
2013-10-04 11:32:00,57.2,45.9,30.19,ENE,67,0.0,-999.0,66,-99.99,,,0.00,Acu-Link.com,2013-10-04 15:32:00,
2013-10-04 11:48:00,57.9,45.8,30.19,NE,45,2.2,-999.0,64,-99.99,,,0.00,Acu-Link.com,2013-10-04 15:48:00,
2013-10-04 12:03:00,58.1,46.0,30.19,North,0,0.0,-999.0,64,-99.99,,,0.00,Acu-Link.com,2013-10-04 16:03:00,
2013-10-04 12:18:00,58.5,45.9,30.19,NNW,337,2.7,-999.0,63,-99.99,,,0.00,Acu-Link.com,2013-10-04 16:18:00,
2013-10-04 12:33:00,59.4,45.9,30.18,NE,45,2.2,-999.0,61,-99.99,,,0.00,Acu-Link.com,2013-10-04 16:33:00,
2013-10-04 12:48:00,60.4,46.0,30.18,East,90,0.0,-999.0,59,-99.99,,,0.00,Acu-Link.com,2013-10-04 16:48:00,
2013-10-04 13:04:00,59.9,46.0,30.17,NNW,337,0.0,-999.0,60,-99.99,,,0.00,Acu-Link.com,2013-10-04 17:04:00,
2013-10-04 13:19:00,58.8,45.8,30.17,ENE,67,0.0,-999.0,62,-99.99,,,0.00,Acu-Link.com,2013-10-04 17:19:00,
2013-10-04 13:34:00,58.6,45.7,30.17,NE,45,0.0,-999.0,62,-99.99,,,0.00,Acu-Link.com,2013-10-04 17:34:00,
2013-10-04 14:04:00,58.6,45.7,30.17,ENE,67,0.0,-999.0,62,-99.99,,,0.00,Acu-Link.com,2013-10-04 18:04:00,
2013-10-04 14:19:00,58.5,45.5,30.16,ENE,67,0.0,-999.0,62,-99.99,,,0.00,Acu-Link.com,2013-10-04 18:19:00,
2013-10-04 14:35:00,58.5,44.2,30.17,ENE,67,1.1,-999.0,59,-99.99,,,0.00,Acu-Link.com,2013-10-04 18:35:00,
2013-10-04 14:50:00,59.0,44.7,30.16,NNW,337,0.0,-999.0,59,-99.99,,,0.00,Acu-Link.com,2013-10-04 18:50:00,
2013-10-04 15:05:00,59.0,44.2,30.16,North,0,0.0,-999.0,58,-99.99,,,0.00,Acu-Link.com,2013-10-04 19:05:00,
2013-10-04 15:20:00,59.5,44.7,30.15,East,90,0.0,-999.0,58,-99.99,,,0.00,Acu-Link.com,2013-10-04 19:20:00,
2013-10-04 15:35:00,59.9,44.6,30.16,ENE,67,0.0,-999.0,57,-99.99,,,0.00,Acu-Link.com,2013-10-04 19:35:00,
2013-10-04 15:51:00,60.1,44.8,30.15,ENE,67,2.2,-999.0,57,-99.99,,,0.00,Acu-Link.com,2013-10-04 19:51:00,
2013-10-04 16:06:00,59.7,45.8,30.15,ESE,112,0.0,-999.0,60,-99.99,,,0.00,Acu-Link.com,2013-10-04 20:06:00,
2013-10-04 16:21:00,59.7,45.4,30.15,East,90,0.0,-999.0,59,-99.99,,,0.00,Acu-Link.com,2013-10-04 20:21:00,
2013-10-04 16:36:00,59.7,45.8,30.14,ENE,67,0.0,-999.0,60,-99.99,,,0.00,Acu-Link.com,2013-10-04 20:36:00,
2013-10-04 16:51:00,59.5,46.1,30.14,ENE,67,0.0,-999.0,61,-99.99,,,0.00,Acu-Link.com,2013-10-04 20:51:00,
2013-10-04 17:07:00,59.4,46.3,30.14,ESE,112,0.0,-999.0,62,-99.99,,,0.00,Acu-Link.com,2013-10-04 21:07:00,
2013-10-04 17:22:00,59.0,47.7,30.14,North,0,0.0,-999.0,66,-99.99,,,0.00,Acu-Link.com,2013-10-04 21:22:00,
2013-10-04 17:37:00,58.6,47.7,30.15,WNW,292,0.0,-999.0,67,-99.99,,,0.00,Acu-Link.com,2013-10-04 21:37:00,
2013-10-04 17:52:00,58.1,48.4,30.15,NNW,337,0.0,-999.0,70,-99.99,,,0.00,Acu-Link.com,2013-10-04 21:52:00,
2013-10-04 18:07:00,57.2,47.9,30.15,NNW,337,0.0,-999.0,71,-99.99,,,0.00,Acu-Link.com,2013-10-04 22:07:00,
2013-10-04 18:23:00,57.0,47.3,30.16,NNW,337,0.0,-999.0,70,-99.99,,,0.00,Acu-Link.com,2013-10-04 22:23:00,
2013-10-04 18:38:00,56.7,47.0,30.16,NNW,337,0.0,-999.0,70,-99.99,,,0.00,Acu-Link.com,2013-10-04 22:38:00,
2013-10-04 18:53:00,55.6,47.1,30.16,NNW,337,0.0,-999.0,73,-99.99,,,0.00,Acu-Link.com,2013-10-04 22:53:00,
2013-10-04 19:08:00,55.6,46.7,30.17,NNW,337,0.0,-999.0,72,-99.99,,,0.00,Acu-Link.com,2013-10-04 23:08:00,
2013-10-04 19:23:00,55.4,46.5,30.16,NNW,337,0.0,-999.0,72,-99.99,,,0.00,Acu-Link.com,2013-10-04 23:23:00,
2013-10-04 19:38:00,54.9,46.7,30.16,NNW,337,0.0,-999.0,74,-99.99,,,0.00,Acu-Link.com,2013-10-04 23:38:00,
2013-10-04 19:54:00,54.5,48.1,30.16,NNW,337,0.0,-999.0,79,-99.99,,,0.00,Acu-Link.com,2013-10-04 23:54:00,
2013-10-04 20:09:00,53.8,47.1,30.15,NNW,337,0.0,-999.0,78,-99.99,,,0.00,Acu-Link.com,2013-10-05 00:09:00,
2013-10-04 20:24:00,53.2,46.2,30.15,NNW,337,0.0,-999.0,77,-99.99,,,0.00,Acu-Link.com,2013-10-05 00:24:00,
2013-10-04 20:39:00,52.5,46.5,30.16,NNW,337,0.0,-999.0,80,-99.99,,,0.00,Acu-Link.com,2013-10-05 00:39:00,
2013-10-04 20:54:00,52.2,47.5,30.16,NNW,337,0.0,-999.0,84,-99.99,,,0.00,Acu-Link.com,2013-10-05 00:54:00,
2013-10-04 21:10:00,52.2,47.2,30.16,NNW,337,0.0,-999.0,83,-99.99,,,0.00,Acu-Link.com,2013-10-05 01:10:00,
2013-10-04 21:25:00,51.8,47.4,30.17,NNW,337,0.0,-999.0,85,-99.99,,,0.00,Acu-Link.com,2013-10-05 01:25:00,
2013-10-04 21:40:00,51.4,48.3,30.17,NNW,337,0.0,-999.0,89,-99.99,,,0.00,Acu-Link.com,2013-10-05 01:40:00,
2013-10-04 21:55:00,51.4,48.3,30.17,NNW,337,0.0,-999.0,89,-99.99,,,0.00,Acu-Link.com,2013-10-05 01:55:00,
2013-10-04 22:10:00,51.4,48.9,30.17,NNW,337,0.0,-999.0,91,-99.99,,,0.00,Acu-Link.com,2013-10-05 02:10:00,
2013-10-04 22:26:00,51.4,48.9,30.17,NNW,337,0.0,-999.0,91,-99.99,,,0.00,Acu-Link.com,2013-10-05 02:26:00,
2013-10-04 22:41:00,51.4,48.3,30.18,NNW,337,0.0,-999.0,89,-99.99,,,0.00,Acu-Link.com,2013-10-05 02:41:00,
2013-10-04 22:56:00,51.4,48.0,30.18,NNW,337,0.0,-999.0,88,-99.99,,,0.00,Acu-Link.com,2013-10-05 02:56:00,
2013-10-04 23:11:00,51.4,48.3,30.18,NNW,337,0.0,-999.0,89,-99.99,,,0.00,Acu-Link.com,2013-10-05 03:11:00,
2013-10-04 23:26:00,51.4,48.3,30.18,NNW,337,0.0,-999.0,89,-99.99,,,0.00,Acu-Link.com,2013-10-05 03:26:00,
2013-10-04 23:42:00,51.3,48.7,30.17,NNW,337,0.0,-999.0,91,-99.99,,,0.00,Acu-Link.com,2013-10-05 03:42:00,
2013-10-04 23:57:00,51.3,49.0,30.17,NNW,337,0.0,-999.0,92,-99.99,,,0.00,Acu-Link.com,2013-10-05 03:57:00,